Find Starlink 33643

NORAD ID: 63381 Int'l Des: 2025-063 Owner: SPXS Country: US Constellation: starlink operational
LEOCIRCULAR

实时位置

正在加载3D地球...

关于 Starlink 33643

正在加载描述...

即将过境

Passes for default location (London). Set your location on the main map for personalized predictions.

高度历史

Loading altitude history...

两行轨道根数

1 63381U 25063U 26106.65912487 .00009260 00000-0 32437-3 0 9993
2 63381 53.1602 236.0305 0001265 86.9482 273.1663 15.30200768 60578
Epoch: Apr 16, 2026 • Age: 17 hours

当前状态

高度 484.5 km
速度 7.62 km/s
星下点 -29.09°S, 105.23°E
发射日期 Mar 26, 2025
运行时间 1 years
类型 internet

技术详情

分类 Payload
质量 575.00 kg
干质量 530.00 kg
总质量 575.00 kg
长度 0.30 m
直径 4.10 m
跨度 29.00 m
形状 Box + pan
制造商 SPXS
平台类型 Starlink V2MO
阶段状态 In Orbit
所有者/国家 SPXS/US

Most Searched